Powrót do katalogu

OPS 4682 DEB

AktywnyPO
NORAD 55121·DEBRIS·🇺🇸 United States

Wystrzelony Apr 3, 1965 z Vandenberg Space Force Base

Loading…

Następne Przeloty (najbliższe 24 godziny)

TLE

Starzejące sięSource: Space-Track

Epoka: Sep 7, 2026, 13:34 UTC

1 55121U 65027HL  26250.56575769  .00000355  00000-0  11278-2 0  9993
2 55121  90.2471   8.4930 0039201 112.5634 247.9644 13.01332041464334

Śledź OPS 4682 DEB w czasie rzeczywistym z AllMySat

Download on the App Store